星链-35231(STARLINK-35231)

导读 | 豆包AI

STARLINK-35231是美国SpaceX公司星链星座的组网卫星,于2025年9月29日发射入轨。星链是全球规模最大的低轨卫星互联网星座,该卫星运行在近地轨道,作为天基接入节点,为全球提供高速低延迟宽带互联网接入服务,可覆盖偏远地区,也可支持海事、航空移动场景通信,助力星链星座完成全球覆盖组网。

基本信息
目录编号:
65849
目录名称:
STARLINK-35231
国际标识:
2025-221AC
轨道中心:
EARTH
卫星名称:
星链-35231
卫星全名:
星链-35231(STARLINK-35231)
卫星状态:
在轨 (已飞行212 天)
发射日期:
2025-09-29 UTC
国别 :
美国 (US)
星等 :
--
轨道信息
数据来源 国际轨道数据
星历时间: 2026-04-29T07:07:43+0800
8小时前
查看轨道信息
半长轴: 6853.33km
偏心率: 0.0000935
轨道倾角: 53.158°
近地点辐角 57.481°
升交点赤经 215.315°
平近点角 302.629°
近地点: 474.552km
远地点: 475.834km
周期: 94.105分钟
每日圈数: 15.302074
详细信息
固有亮度:
5
最大亮度:
2.5
卫星平台:
Starlink V1.0
覆盖范围:
全球
运营商:
太空探索技术公司
运营商所在国:
美国
制造商(研发单位):
太空探索技术公司
制造商所在国:
美国
使用方式:
暂无
卫星简介
Starlink 计划是 SpaceX 推出的全球卫星互联网项目,通过发射低轨道卫星,为全球尤其是偏远地区提供高速、低延迟的互联网服务。自 2019 年起,Starlink 已部署数千颗卫星,旨在缩小全球数字鸿沟,推动互联网普及。该项目还为军事、航空等行业提供通信支持,带来广泛经济效益。
2D轨道图
3D轨道图
轨道高度分析图
轨道倾角分析图
轨道综合分析图
查看轨道综合分析图